Location: Deer Lodge Site
(39.6809°N, 119.9392°W)
Time: 18:35:08
(UTC-08:00)

Amateur Radio Satellites - All Passes

Search period start: 22 February 2017 18:05
Search period end: 23 February 2017 18:05
Location: Deer Lodge Site, 39.6809°N, 119.9392°W

Satellite Date Start Highest point End Downlink Frequencies (MHz)
Time Altitude Azimuth
CUTE-I 22 Feb 18:14:17 18:19:09 37° 262° (W) 18:24:06 437.470
SEEDS 22 Feb 18:20:10 18:23:39 25° 69° (ENE) 18:27:10 437.485
AAUSAT CUBESAT 2 22 Feb 18:20:27 18:22:16 13° 64° (ENE) 18:24:03 437.432
M-CUBED/EXP-1 PRIME 22 Feb 18:28:27 18:31:12 20° 295° (WNW) 18:34:06 437.505
XW-2A 22 Feb 18:30:19 18:33:41 84° 77° (ENE) 18:37:07 145.665 - 145.685
HO-68 22 Feb 18:35:19 18:42:28 76° 72° (ENE) 18:49:38 435.675
STARS 22 Feb 18:37:31 18:38:47 11° 298° (WNW) 18:40:04 437.465
STRAND 1 22 Feb 18:38:52 18:43:13 27° 96° (E) 18:47:33 437.568
CUBEBUG 2 22 Feb 18:39:10 18:42:55 28° 69° (ENE) 18:46:47 437.445
DOVE 4 22 Feb 18:44:56 18:46:20 11° 269° (W) 18:47:43 437.250
CUTE 1.7 + AOD 2 22 Feb 18:51:45 18:56:02 90° 207° (SSW) 19:00:20 437.475
RS-15 22 Feb 18:55:42 19:07:28 59° 310° (NW) 19:19:42 29.354- 29.394
AO-73 22 Feb 19:05:44 19:08:53 19° 66° (ENE) 19:12:04 145.935
Oscar 11 22 Feb 19:16:10 19:19:28 21° 68° (ENE) 19:22:46 .
UWE-3 22 Feb 19:22:20 19:26:36 52° 74° (ENE) 19:31:02 435.000/436.395/437.385
ZACube-1 22 Feb 19:50:06 19:54:27 63° 75° (ENE) 19:58:56 437.345
AAUSAT CUBESAT 2 22 Feb 19:53:10 19:57:14 54° 260° (W) 20:01:20 437.432
SEEDS 22 Feb 19:55:43 19:59:15 25° 265° (W) 20:02:48 437.485
CUBEBUG 2 22 Feb 20:15:53 20:19:29 25° 266° (W) 20:23:12 437.445
DELFI C3 22 Feb 20:17:40 20:21:08 29° 71° (ENE) 20:24:35 145.870
STRAND 1 22 Feb 20:17:45 20:22:24 34° 292° (WNW) 20:27:00 437.568
YUBILEINY 22 Feb 20:20:59 20:27:54 25° 67° (ENE) 20:34:44 435.215
PRISM 22 Feb 20:23:38 20:25:03 11° 92° (E) 20:26:26 437.425
HO-68 22 Feb 20:26:01 20:30:49 19° 269° (W) 20:35:38 435.675
AO-73 22 Feb 20:40:40 20:44:48 39° 263° (W) 20:49:02 145.935
Oscar 11 22 Feb 20:51:27 20:55:23 33° 263° (W) 20:59:20 .
UWE-3 22 Feb 21:01:09 21:03:24 14° 270° (W) 21:05:41 435.000/436.395/437.385
RS-15 22 Feb 21:14:04 21:23:28 24° 340° (NNW) 21:33:00 29.354- 29.394
UNISAT 6 22 Feb 21:14:16 21:17:50 21° 93° (E) 21:21:21 437.425
TIGRISAT 22 Feb 21:15:33 21:19:02 20° 93° (E) 21:22:28 435.000
ZACube-1 22 Feb 21:29:44 21:31:09 11° 271° (W) 21:32:36 437.345
FO-29 22 Feb 21:45:41 21:52:06 29° 91° (E) 21:58:02 435.910
DELFI C3 22 Feb 21:53:04 21:55:56 19° 266° (W) 21:58:48 145.870
PRISM 22 Feb 21:56:39 22:00:36 51° 287° (WNW) 22:04:34 437.425
YUBILEINY 22 Feb 22:16:46 22:25:26 69° 267° (W) 22:34:00 435.215
SO-50 22 Feb 22:18:54 22:23:23 46° 117° (ESE) 22:27:50 436.795
ESTCUBE 1 22 Feb 22:22:52 22:27:17 55° 74° (ENE) 22:31:42 437.505/2401.250
50 SAT 22 Feb 22:35:36 22:37:16 13° 67° (ENE) 22:38:57 437.505
DUCHIFAT 1 22 Feb 22:43:01 22:44:43 12° 91° (E) 22:46:24 145.980
EO-79 22 Feb 22:49:23 22:52:19 18° 93° (E) 22:55:13 145.935-145.965
UNISAT 6 22 Feb 22:50:17 22:54:37 38° 289° (WNW) 22:58:56 437.425
TIGRISAT 22 Feb 22:51:26 22:55:50 39° 289° (WNW) 23:00:10 435.000
VELOX 1 22 Feb 23:00:44 23:04:55 46° 72° (ENE) 23:09:08 145.980
DX 1 22 Feb 23:02:38 23:05:57 22° 67° (ENE) 23:09:16 434.975-435.025
AIST 2D 22 Feb 23:04:15 23:07:41 43° 99° (E) 23:11:04 435.315
POLYITAN 1 22 Feb 23:05:24 23:09:05 27° 96° (E) 23:12:44 437.675
NANOSAT C BR1 22 Feb 23:07:39 23:11:15 26° 96° (E) 23:14:49 145.865
QB50P2 22 Feb 23:08:07 23:11:57 31° 97° (E) 23:15:46 145.880/145.840
O/OREOS (USA 219) 22 Feb 23:10:34 23:15:02 86° 289° (WNW) 23:19:33 437.305
UKube-1 22 Feb 23:20:13 23:23:41 24° 68° (ENE) 23:27:09 .
SPROUT 22 Feb 23:29:44 23:33:59 78° 75° (ENE) 23:38:16 437.525
FO-29 22 Feb 23:29:57 23:37:28 56° 290° (WNW) 23:44:20 435.910
RS-15 22 Feb 23:32:57 23:42:11 23° 16° (NNE) 23:51:16 29.354- 29.394
BUGSAT 1 22 Feb 23:49:59 23:53:27 24° 95° (E) 23:56:55 437.445
SO-50 23 Feb 00:00:23 00:04:03 22° 314° (NW) 00:07:43 436.795
ESTCUBE 1 23 Feb 00:02:15 00:04:24 13° 269° (W) 00:06:33 437.505/2401.250
50 SAT 23 Feb 00:06:50 00:10:04 34° 261° (W) 00:13:19 437.505
DUCHIFAT 1 23 Feb 00:16:31 00:20:41 54° 286° (WNW) 00:24:50 145.980
Oscar 19 23 Feb 00:17:45 00:20:34 15° 91° (E) 00:23:21 437.125/150
YUBILEINY 23 Feb 00:18:29 00:20:25 11° 287° (WNW) 00:22:21 435.215
EO-79 23 Feb 00:24:14 00:28:11 37° 289° (WNW) 00:32:07 145.935-145.965
DX 1 23 Feb 00:38:05 00:41:56 31° 263° (W) 00:45:49 434.975-435.025
VELOX 1 23 Feb 00:39:08 00:41:37 15° 268° (W) 00:44:06 145.980
AIST 2D 23 Feb 00:39:27 00:40:29 11° 294° (WNW) 00:41:31 435.315
Gurwin Techsat 1B 23 Feb 00:40:54 00:43:32 14° 90° (E) 00:46:10 435.225
POLYITAN 1 23 Feb 00:41:14 00:44:45 25° 291° (WNW) 00:48:15 437.675
NANOSAT C BR1 23 Feb 00:43:20 00:46:52 25° 291° (WNW) 00:50:22 145.865
QB50P2 23 Feb 00:44:16 00:47:33 22° 292° (WNW) 00:50:50 145.880/145.840
PCSat 23 Feb 00:55:38 01:00:22 29° 51° (NE) 01:05:04 145.827
UKube-1 23 Feb 00:55:53 00:59:35 28° 263° (W) 01:03:18 .
FO-29 23 Feb 01:18:37 01:20:41 11° 310° (NW) 01:22:44 435.910
BUGSAT 1 23 Feb 01:25:10 01:28:45 27° 291° (WNW) 01:32:20 437.445
ITUPSAT 1 23 Feb 01:29:49 01:34:18 41° 71° (ENE) 01:38:50 437.325
BEESAT 23 Feb 01:38:06 01:42:43 51° 72° (ENE) 01:47:23 436.000
RS-15 23 Feb 01:46:34 01:58:36 53° 47° (NE) 02:10:07 29.354- 29.394
Oscar 19 23 Feb 01:55:13 02:00:16 62° 287° (WNW) 02:05:19 437.125/150
Gurwin Techsat 1B 23 Feb 02:18:40 02:23:58 70° 286° (WNW) 02:29:15 435.225
MOZHAYETS 4 23 Feb 02:22:39 02:27:07 50° 73° (ENE) 02:31:38
ITAMSAT 1 23 Feb 02:23:40 02:27:50 23° 95° (E) 02:31:57 435.822/435.867
PCSat 23 Feb 02:38:48 02:43:51 40° 249° (WSW) 02:48:51 145.827
AO-7 23 Feb 02:49:28 02:56:53 35° 98° (E) 03:04:13 .
ITUPSAT 1 23 Feb 03:08:48 03:12:17 20° 266° (W) 03:15:48 437.325
KKS-1 23 Feb 03:12:54 03:17:06 45° 72° (ENE) 03:21:19 437.445
CUBESAT XI-V 23 Feb 03:15:32 03:19:31 29° 69° (ENE) 03:23:29 437.345
BEESAT 23 Feb 03:17:53 03:20:47 16° 268° (W) 03:23:41 436.000
M-CUBED/EXP-1 PRIME 23 Feb 03:39:41 03:42:32 27° 66° (ENE) 03:45:20 437.505
STARS 23 Feb 03:54:08 03:58:23 56° 73° (ENE) 04:02:41 437.465
RS-15 23 Feb 03:59:32 04:11:03 50° 251° (WSW) 04:22:05 29.354- 29.394
MOZHAYETS 4 23 Feb 04:01:49 04:04:33 15° 269° (W) 04:07:18
AO-85 23 Feb 04:02:01 04:06:06 31° 115° (ESE) 04:09:57 145.980
ITAMSAT 1 23 Feb 04:02:31 04:07:24 41° 290° (WNW) 04:12:16 435.822/435.867
AO-7 23 Feb 04:41:52 04:49:50 52° 296° (WNW) 04:57:44 .
KKS-1 23 Feb 04:51:12 04:53:52 16° 267° (W) 04:56:33 437.445
CUBESAT XI-V 23 Feb 04:52:50 04:56:49 27° 265° (W) 05:00:47 437.345
CUTE-I 23 Feb 04:55:04 04:56:13 11° 89° (E) 04:57:22 437.470
XW-2D 23 Feb 05:02:29 05:02:51 10° 90° (E) 05:03:14 145.860 - 145.880
DOVE 4 23 Feb 05:03:56 05:06:56 16° 93° (E) 05:09:59 437.250
XW-2B 23 Feb 05:06:37 05:07:52 11° 91° (E) 05:09:08 145.730 - 145.750
XW-2C 23 Feb 05:14:18 05:16:30 15° 92° (E) 05:18:42 145.795 - 145.815
M-CUBED/EXP-1 PRIME 23 Feb 05:15:19 05:17:05 14° 260° (W) 05:18:50 437.505
LilacSat-2 23 Feb 05:27:42 05:30:47 22° 95° (E) 05:33:49 437.200
STARS 23 Feb 05:33:18 05:35:05 12° 269° (W) 05:36:51 437.465
NUDT-PHONESAT 23 Feb 05:34:40 05:37:34 21° 94° (E) 05:40:26 437.300
AO-85 23 Feb 05:42:38 05:46:30 27° 310° (NW) 05:50:08 145.980
STRAND 1 23 Feb 05:53:46 05:58:25 36° 69° (ENE) 06:03:07 437.568
HO-68 23 Feb 06:06:41 06:09:58 13° 89° (E) 06:13:14 435.675
KAITUO 1B 23 Feb 06:29:50 06:33:37 73° 284° (WNW) 06:37:20 145.475/437.950
XW-2F 23 Feb 06:30:28 06:34:14 59° 285° (WNW) 06:37:57 145.980 - 146.000
CUTE-I 23 Feb 06:31:29 06:36:54 87° 284° (WNW) 06:42:17 437.470
XW-2D 23 Feb 06:33:37 06:37:21 50° 286° (WNW) 06:41:02 145.860 - 145.880
AO-7 23 Feb 06:38:34 06:40:39 11° 317° (NW) 06:42:45 .
CUTE 1.7 + AOD 2 23 Feb 06:38:38 06:41:18 16° 92° (E) 06:43:56 437.475
XW-2B 23 Feb 06:38:38 06:42:19 45° 286° (WNW) 06:45:57 145.730 - 145.750
DOVE 4 23 Feb 06:40:17 06:44:47 50° 287° (WNW) 06:49:32 437.250
BEESAT 3 23 Feb 06:41:40 06:45:33 85° 120° (ESE) 06:49:30 437.485
XW-2C 23 Feb 06:47:19 06:50:50 35° 288° (WNW) 06:54:18 145.795 - 145.815
SO-50 23 Feb 06:51:04 06:55:10 33° 50° (NE) 06:59:12 436.795
LilacSat-2 23 Feb 07:01:52 07:04:58 23° 290° (WNW) 07:08:02 437.200
NUDT-PHONESAT 23 Feb 07:08:22 07:11:26 24° 290° (WNW) 07:14:29 437.300
Tancredo 1 23 Feb 07:11:17 07:11:29 10° 128° (SE) 07:11:42 437.200
BEESAT 2 23 Feb 07:14:28 07:18:23 78° 119° (ESE) 07:22:23 435.950
UWE-3 23 Feb 07:14:40 07:16:36 12° 89° (E) 07:18:31 435.000/436.395/437.385
XW-2A 23 Feb 07:25:41 07:29:10 79° 281° (W) 07:32:36 145.665 - 145.685
STRAND 1 23 Feb 07:33:25 07:37:38 26° 265° (W) 07:41:54 437.568
AAUSAT CUBESAT 2 23 Feb 07:36:32 07:39:50 23° 95° (E) 07:43:07 437.432
SEEDS 23 Feb 07:39:27 07:43:33 53° 100° (E) 07:47:36 437.485
ZACube-1 23 Feb 07:40:54 07:43:13 14° 90° (E) 07:45:31 437.345
O/OREOS (USA 219) 23 Feb 07:43:12 07:46:09 17° 56° (NE) 07:49:06 437.305
HO-68 23 Feb 07:51:24 07:58:37 85° 107° (ESE) 08:05:46 435.675
FO-29 23 Feb 07:59:24 08:02:35 13° 52° (NE) 08:05:51 435.910
CUBEBUG 2 23 Feb 08:06:13 08:11:00 73° 101° (E) 08:15:43 437.445
ISS 23 Feb 08:12:51 08:15:59 45° 137° (SE) 08:19:10 437.550
UNISAT 6 23 Feb 08:12:51 08:15:44 17° 64° (ENE) 08:18:39 437.425
CUTE 1.7 + AOD 2 23 Feb 08:13:21 08:17:17 39° 288° (WNW) 08:21:11 437.475
TIGRISAT 23 Feb 08:14:02 08:16:48 16° 64° (ENE) 08:19:36 435.000
CUTE-I 23 Feb 08:14:17 08:16:07 12° 302° (WNW) 08:17:56 437.470
BEESAT 3 23 Feb 08:22:31 08:23:44 11° 319° (NW) 08:24:56 437.485
AO-73 23 Feb 08:29:11 08:33:32 42° 98° (E) 08:37:46 145.935
SO-50 23 Feb 08:31:45 08:35:29 26° 247° (WSW) 08:39:11 436.795
Oscar 11 23 Feb 08:38:58 08:43:08 46° 99° (E) 08:47:16 .
Tancredo 1 23 Feb 08:44:03 08:47:18 80° 323° (NW) 08:50:34 437.200
PRISM 23 Feb 08:44:34 08:48:39 85° 254° (WSW) 08:52:45 437.425
UWE-3 23 Feb 08:48:49 08:53:27 63° 285° (WNW) 08:58:01 435.000/436.395/437.385
BEESAT 2 23 Feb 08:55:04 08:56:42 12° 318° (NW) 08:58:19 435.950
AAUSAT CUBESAT 2 23 Feb 09:11:49 09:15:14 26° 290° (WNW) 09:18:39 437.432
ZACube-1 23 Feb 09:15:21 09:19:49 54° 286° (WNW) 09:24:12 437.345
SEEDS 23 Feb 09:16:55 09:18:45 13° 296° (WNW) 09:20:36 437.485
YUBILEINY 23 Feb 09:21:21 09:28:34 30° 83° (E) 09:35:46 435.215
O/OREOS (USA 219) 23 Feb 09:21:25 09:25:52 51° 253° (WSW) 09:30:19 437.305
DELFI C3 23 Feb 09:29:40 09:33:31 53° 99° (E) 09:37:20 145.870
AIST 2D 23 Feb 09:39:04 09:41:08 15° 68° (ENE) 09:43:11 435.315
FO-29 23 Feb 09:39:07 09:46:00 66° 71° (ENE) 09:53:36 435.910
HO-68 23 Feb 09:40:48 09:45:26 19° 304° (NW) 09:50:05 435.675
EO-79 23 Feb 09:42:11 09:44:01 13° 64° (ENE) 09:45:52 145.935-145.965
CUBEBUG 2 23 Feb 09:45:00 09:46:57 12° 298° (WNW) 09:48:55 437.445
UNISAT 6 23 Feb 09:47:44 09:52:00 46° 261° (W) 09:56:26 437.425
TIGRISAT 23 Feb 09:48:43 09:53:02 49° 261° (W) 09:57:28 435.000
ISS 23 Feb 09:49:48 09:52:35 24° 334° (NNW) 09:55:22 437.550
POLYITAN 1 23 Feb 09:57:40 10:00:38 19° 67° (ENE) 10:03:39 437.675
NANOSAT C BR1 23 Feb 09:59:29 10:02:21 18° 66° (ENE) 10:05:14 145.865
QB50P2 23 Feb 10:00:15 10:03:28 22° 68° (ENE) 10:06:43 145.880/145.840
AO-73 23 Feb 10:06:16 10:09:24 18° 294° (WNW) 10:12:29 145.935
Oscar 11 23 Feb 10:16:18 10:18:52 16° 295° (WNW) 10:21:26 .
ESTCUBE 1 23 Feb 10:18:08 10:19:56 12° 91° (E) 10:21:43 437.505/2401.250
Tancredo 1 23 Feb 10:21:51 10:24:01 16° 341° (NNW) 10:26:11 437.200
BUGSAT 1 23 Feb 10:39:52 10:42:14 15° 65° (ENE) 10:44:37 437.445
DELFI C3 23 Feb 11:06:36 11:07:50 11° 296° (WNW) 11:09:04 145.870
DUCHIFAT 1 23 Feb 11:06:54 11:11:05 85° 253° (WSW) 11:15:20 145.980
AIST 2D 23 Feb 11:10:55 11:14:04 31° 263° (W) 11:17:17 435.315
EO-79 23 Feb 11:15:09 11:19:16 56° 259° (W) 11:23:28 145.935-145.965
YUBILEINY 23 Feb 11:16:08 11:24:47 58° 282° (WNW) 11:33:28 435.215
SPROUT 23 Feb 11:17:44 11:20:03 14° 92° (E) 11:22:22 437.525
FO-29 23 Feb 11:26:10 11:31:36 24° 271° (W) 11:37:26 435.910
ISS 23 Feb 11:28:59 11:29:58 11° 354° (N) 11:30:56 437.550
POLYITAN 1 23 Feb 11:32:17 11:36:10 35° 263° (W) 11:40:06 437.675
50 SAT 23 Feb 11:33:22 11:35:22 15° 94° (E) 11:37:22 437.505
Oscar 19 23 Feb 11:33:29 11:37:18 21° 65° (ENE) 11:41:07 437.125/150
NANOSAT C BR1 23 Feb 11:33:53 11:37:46 37° 262° (W) 11:41:43 145.865
QB50P2 23 Feb 11:35:20 11:39:04 30° 263° (W) 11:42:52 145.880/145.840
ESTCUBE 1 23 Feb 11:52:41 11:57:05 59° 286° (WNW) 12:01:28 437.505/2401.250
Gurwin Techsat 1B 23 Feb 12:00:40 12:04:39 22° 64° (ENE) 12:08:38 435.225
Tancredo 1 23 Feb 12:01:01 12:01:23 10° 1° (N) 12:01:45 437.200
BUGSAT 1 23 Feb 12:13:24 12:17:13 41° 261° (W) 12:21:07 437.445
DX 1 23 Feb 12:26:25 12:30:35 44° 99° (E) 12:34:44 434.975-435.025
VELOX 1 23 Feb 12:27:29 12:31:54 76° 284° (WNW) 12:36:18 145.980
AO-85 23 Feb 12:34:13 12:37:09 20° 47° (NE) 12:40:06 145.980
UKube-1 23 Feb 12:42:54 12:47:05 47° 100° (E) 12:51:14 .
SPROUT 23 Feb 12:52:04 12:56:13 47° 287° (WNW) 13:00:20 437.525
50 SAT 23 Feb 13:05:32 13:08:33 28° 289° (WNW) 13:11:32 437.505
ISS 23 Feb 13:05:47 13:07:34 14° 15° (NNE) 13:09:21 437.550
Oscar 19 23 Feb 13:11:21 13:16:16 46° 260° (W) 13:21:14 437.125/150
YUBILEINY 23 Feb 13:23:02 13:23:46 10° 305° (NW) 13:24:28 435.215
ITUPSAT 1 23 Feb 13:33:40 13:34:54 11° 90° (E) 13:36:07 437.325
Tancredo 1 23 Feb 13:36:22 13:38:43 18° 21° (NNE) 13:41:02 437.200
Gurwin Techsat 1B 23 Feb 13:39:08 13:44:15 47° 261° (W) 13:49:22 435.225
BEESAT 23 Feb 13:40:37 13:43:03 14° 91° (E) 13:45:27 436.000
ITAMSAT 1 23 Feb 13:40:38 13:45:16 34° 68° (ENE) 13:49:56 435.822/435.867
AO-7 23 Feb 13:47:20 13:55:08 46° 63° (ENE) 14:02:57 .
DX 1 23 Feb 14:03:38 14:06:24 17° 295° (WNW) 14:09:09 434.975-435.025
AO-85 23 Feb 14:14:03 14:17:37 35° 244° (WSW) 14:21:16 145.980
UKube-1 23 Feb 14:20:12 14:22:42 15° 296° (WNW) 14:25:12 .
MOZHAYETS 4 23 Feb 14:20:27 14:22:20 12° 90° (E) 14:24:13
ISS 23 Feb 14:41:27 14:44:39 49° 34° (NNE) 14:47:50 437.550
BEESAT 3 23 Feb 14:59:20 15:03:05 36° 53° (NE) 15:06:49 437.485
ITUPSAT 1 23 Feb 15:08:24 15:13:13 73° 286° (WNW) 15:17:58 437.325
Tancredo 1 23 Feb 15:12:06 15:15:20 78° 219° (SW) 15:18:31 437.200
BEESAT 23 Feb 15:16:28 15:21:11 59° 287° (WNW) 15:25:52 436.000
ITAMSAT 1 23 Feb 15:20:16 15:24:43 28° 264° (W) 15:29:13 435.822/435.867
BEESAT 2 23 Feb 15:33:02 15:36:47 35° 52° (NE) 15:40:30 435.950
PCSat 23 Feb 15:36:43 15:41:19 29° 109° (ESE) 15:45:56 145.827
AO-7 23 Feb 15:40:11 15:47:54 40° 261° (W) 15:55:40 .
STARS 23 Feb 15:46:52 15:47:53 11° 90° (E) 15:48:54 437.465
MOZHAYETS 4 23 Feb 15:55:20 15:59:53 61° 286° (WNW) 16:04:23
RS-15 23 Feb 16:09:50 16:19:46 33° 103° (ESE) 16:29:58 29.354- 29.394
DOVE 4 23 Feb 16:10:17 16:12:07 13° 64° (ENE) 16:13:56 437.250
LilacSat-2 23 Feb 16:10:41 16:11:51 11° 64° (ENE) 16:13:01 437.200
CUTE-I 23 Feb 16:14:46 16:18:19 18° 62° (ENE) 16:21:52 437.470
ISS 23 Feb 16:18:39 16:20:50 17° 229° (SW) 16:23:01 437.550
BEESAT 3 23 Feb 16:37:36 16:40:26 19° 249° (WSW) 16:43:14 437.485
HO-68 23 Feb 16:37:51 16:39:23 11° 50° (NE) 16:40:55 435.675
KKS-1 23 Feb 16:40:37 16:45:06 79° 286° (WNW) 16:49:35 437.445
CUBESAT XI-V 23 Feb 16:49:12 16:53:49 78° 101° (ESE) 16:58:24 437.345
M-CUBED/EXP-1 PRIME 23 Feb 16:51:59 16:55:13 26° 103° (ESE) 16:58:38 437.505
KAITUO 1B 23 Feb 17:08:48 17:12:23 42° 74° (ENE) 17:16:01 145.475/437.950
XW-2F 23 Feb 17:10:07 17:13:51 53° 75° (ENE) 17:17:37 145.980 - 146.000
BEESAT 2 23 Feb 17:11:21 17:14:20 20° 249° (WSW) 17:17:17 435.950
XW-2D 23 Feb 17:13:29 17:17:17 63° 76° (ENE) 17:21:07 145.860 - 145.880
XW-2B 23 Feb 17:18:27 17:22:16 71° 76° (ENE) 17:26:08 145.730 - 145.750
PCSat 23 Feb 17:19:31 17:24:33 38° 306° (NW) 17:29:37 145.827
STARS 23 Feb 17:20:14 17:24:38 66° 286° (WNW) 17:29:01 437.465
XW-2C 23 Feb 17:27:00 17:30:50 87° 258° (WSW) 17:34:43 145.795 - 145.815
CUTE 1.7 + AOD 2 23 Feb 17:31:54 17:33:20 11° 63° (ENE) 17:34:46 437.475
LilacSat-2 23 Feb 17:41:51 17:45:38 53° 260° (W) 17:49:28 437.200
DOVE 4 23 Feb 17:45:20 17:49:22 50° 260° (W) 17:53:25 437.250
NUDT-PHONESAT 23 Feb 17:45:59 17:49:41 61° 259° (W) 17:53:27 437.300
CUTE-I 23 Feb 17:52:37 17:57:51 58° 259° (W) 18:03:08 437.470
XW-2A 23 Feb 17:56:32 17:59:25 26° 71° (ENE) 18:02:20 145.665 - 145.685
